Location: Coupvray
(48.8929°N, 2.7967°E)
Time: 21:16:22
(UTC+00:00)

Cosmos 1241 Rocket - Pass Details

Date: 31 October 2020
Orbit: 929 x 1018 km, 65.8° (Epoch: 30 November)

Event Time Altitude Azimuth Distance (km) Brightness Sun altitude
Rises 20:32:43 0° 308° (NW) 3,713 8.4 -39.7°
Reaches altitude 10° 20:36:14 10° 326° (NNW) 2,779 7.4 -40.2°
Enters shadow 20:39:27 18° 356° (N) 2,273 6.6 -40.7°
